User: anonymous
Location: Caltech
(34.1382°N, 118.1253°W)
Time: 04:46:35
(UTC-07:00)
Language:

Cosmos 1697 Rocket - Orbit

View from above orbital plane
View from above orbital plane
View from above satellite
View from above satellite

Ground track
Ground track

The orbit data is extracted from the following two-line orbital elements,

1 16182U 85097B   14233.50916685 -.00000132  00000-0 -42413-4 0  3440
2 16182 071.0062 016.4197 0008594 219.7234 200.6529 14.16126058490302
Epoch (UTC): 21 August 2014 12:13:12
Eccentricity: 0.0008594
inclination: 71.0062°
perigee height: 832 km
apogee height: 844 km
right ascension of ascending node: 16.4197°
argument of perigee: 219.7234°
revolutions per day: 14.16126058
mean anomaly at epoch: 200.6529°
orbit number at epoch: 49030

The dashed part of the orbit path shows where the satellite is in the earth's shadow,  

DLR